This is the latest recevied weather packets stored in our database for station/object OK3MS-5. If no packets are shown the sender has not sent any weather packets the latest 10 day(s).
| Time | Temp. | Humidity | Pressure | Rain* | Wind** | Luminosity | Snow |
|---|---|---|---|---|---|---|---|
| 1787910304 | 25.56° C | 52% | 1010.1 hPa | 0 mm | - | 568 W/m² | - |
| 1787910004 | 25° C | 53% | 1010.2 hPa | 0 mm | - | 561 W/m² | - |
| 1787909702 | 25° C | 53% | 1010.4 hPa | 0 mm | - | 554 W/m² | - |
| 1787909403 | 25° C | 53% | 1010.4 hPa | 0 mm | - | 548 W/m² | - |
| 1787909103 | 25.56° C | 52% | 1010.5 hPa | 0 mm | - | 543 W/m² | - |
| 1787908803 | 25° C | 53% | 1010.7 hPa | 0 mm | - | 536 W/m² | - |
| 1787908505 | 24.44° C | 54% | 1010.7 hPa | 0 mm | - | 527 W/m² | - |
| 1787908205 | 23.89° C | 54% | 1010.9 hPa | 0 mm | - | 515 W/m² | - |
| 1787907905 | 23.89° C | 55% | 1011 hPa | 0 mm | - | 512 W/m² | - |
| 1787907603 | 23.89° C | 56% | 1010.9 hPa | 0 mm | - | 501 W/m² | - |
| 1787907303 | 23.89° C | 56% | 1011 hPa | 0 mm | - | 490 W/m² | - |
| 1787907004 | 23.33° C | 56% | 1011 hPa | 0 mm | - | 480 W/m² | - |
| 1787906703 | 23.89° C | 55% | 1011.1 hPa | 0 mm | - | 470 W/m² | - |
| 1787906403 | 23.89° C | 56% | 1011 hPa | 0 mm | - | 459 W/m² | - |
| 1787906103 | 23.33° C | 55% | 1011 hPa | 0 mm | - | 448 W/m² | - |
| 1787905802 | 23.33° C | 57% | 1011.2 hPa | 0 mm | - | 440 W/m² | - |
| 1787905502 | 23.33° C | 59% | 1011.1 hPa | 0 mm | - | 428 W/m² | - |
| 1787905202 | 22.78° C | 58% | 1011.2 hPa | 0 mm | - | 419 W/m² | - |
| 1787904903 | 22.78° C | 59% | 1011.4 hPa | 0 mm | - | 406 W/m² | - |
| 1787904603 | 22.22° C | 58% | 1011.5 hPa | 0 mm | - | 398 W/m² | - |
| 1787904305 | 22.22° C | 59% | 1011.5 hPa | 0 mm | - | 389 W/m² | - |
| 1787904005 | 22.22° C | 60% | 1011.6 hPa | 0 mm | - | 373 W/m² | - |
| 1787903702 | 22.22° C | 61% | 1011.9 hPa | 0 mm | - | 367 W/m² | - |
| 1787903403 | 21.67° C | 61% | 1011.8 hPa | 0 mm | - | 355 W/m² | - |
| 1787903104 | 21.67° C | 61% | 1011.9 hPa | 0 mm | - | 344 W/m² | - |
* Rain latest hour (hover to see other rain measurements)
** Current wind speed in m/s (hover to see current wind gust speed)